Вернуться в каталог

COSMOS 2251 DEB

АктивенLEO
NORAD 34270·DEBRIS·🇷🇺 Russia

Запущен Jun 16, 1993 с Plesetsk Cosmodrome

Loading…

Ближайшие Пролёты (ближайшие 24 часа)

TLE

СвежийSource: Space-Track

Эпоха: Sep 13, 2026, 23:12 UTC

1 34270U 93036LQ  26256.96688832  .00001665  00000-0  29987-3 0  9994
2 34270  74.0095 135.5390 0049967 220.3647 139.3810 14.66642264931298

Отслеживайте COSMOS 2251 DEB в реальном времени с AllMySat

Download on the App Store